Regional Weather Roundup
Issued by NWS Sioux Falls, SD

Home | Current Version | Previous Version | Text Only | Print | Product List | Glossary On
Versions: 1 2 3 4 5 6 7 8 9 10 11 12 13 14 15 16 17 18 19 20 21 22 23 24 25 26 27 28 29 30 31 32 33 34 35 36 37 38 39 40 41 42 43 44 45 46 47 48 49 50
000
ASUS43 KFSD 200910
RWRFSD

WEATHER ROUNDUP FOR SE SOUTH DAKOTA/SW MINNESOTA/NW IOWA
NATIONAL WEATHER SERVICE SIOUX FALLS SD
400 AM CDT WED AUG 20 2014

NOTE: "FAIR" INDICATES FEW OR NO CLOUDS BELOW 12,000 FEET WITH NO
SIGNIFICANT WEATHER AND OR OBSTRUCTIONS TO VISIBILITY.


SDZ038>040-050-052>070-201000-
SOUTHEAST SOUTH DAKOTA

CITY           SKY/WX    TMP DP  RH WIND       PRES   REMARKS
CHAMBERLAIN    CLOUDY    68  65  90 NE15G23   29.79R
HURON          LGT RAIN  67  62  84 SE6       29.74F
MADISON        FAIR      63  63 100 E5        29.80F
MITCHELL       CLOUDY    70  64  81 SE7       29.75F
SIOUX FALLS    CLOUDY    68  63  84 E3        29.79S
WINNER         FAIR      73  67  81 E7        29.73F
YANKTON        MOCLDY    66  64  94 S3        29.79R THUNDER
$$

MNZ071-072-080-081-089-090-097-098-201000-
SOUTHWEST MINNESOTA

CITY           SKY/WX    TMP DP  RH WIND       PRES   REMARKS
FAIRMONT       PTCLDY    63  45  51 CALM      29.82R
JACKSON        CLEAR     61  57  88 CALM      29.84R FOG
LUVERNE        MOCLDY    64  61  88 NE5       29.79F
MARSHALL       CLEAR     64  61  88 S3        29.79F
MONTEVIDEO     PTCLDY    64  63  94 SE5       29.80F
PIPESTONE      MOCLDY    64  63  94 SE5       29.81F
REDWOOD FALLS  PTCLDY    64  63  96 CALM      29.80R
TRACY          CLEAR     67  63  86 CALM      29.81F
WINDOM         FOG       61  59  94 CALM      29.83R VSB 1/2
WORTHINGTON    CLEAR     61   5  11 NE3       29.83F
$$

IAZ001>003-012>014-020>022-031-032-NEZ013-014-SDZ071-201000-
NORTHWEST IOWA

CITY           SKY/WX    TMP DP  RH WIND       PRES   REMARKS
CHEROKEE       PTCLDY    64  64 100 CALM      29.81S
DENISON        CLOUDY    70  66  88 SE7       29.79F
ESTHERVILLE    CLEAR     59  59 100 NE3       29.82R FOG
LE MARS        LGT RAIN  68  66  94 VRB5      29.80S
ORANGE CITY    MOCLDY    68  61  77 E3        29.80F
SHELDON        PTCLDY    61  61 100 SE5       29.80S
SIOUX CITY     CLOUDY    68  65  90 NE7       29.76F
SPENCER        PTCLDY    61  59  93 CALM      29.81S
STORM LAKE     PTCLDY    64  64 100 SE8       29.83R
$$

ABBREVIATIONS USED IN REMARKS
   TC - TEMPERATURE IN CELSIUS
  WCI - WIND CHILL INDEX
   HX - HEAT INDEX
  VSB - VISIBILITY




USA.gov is the U.S. government's official web portal to all federal, state and local government web resources and services.